Date String (YYYY-MM-DD hh:mm:ss) UTC,Instrument flags,Ambient pressure (hPa),Sample flow (lpm),Bypass flow (lpm),Sample temperature (°C),Ambient temperature (°C),ASC tube jacket temperature (°C),LED temperature (°C),Box temperature (°C),Sample RH (%),Span deviation,Mass concentration (μg/m³),Mass concentration (μg/m³),Mass concentration (μg/m³)
DateTimeUTC,F1_M11,P_M11,Q1_M11,Q2_M11,T1_M11,T2_M11,T3_M11,T4_M11,T5_M11,U1_M11,ZSPAN_M11,X0_M11,X2_M11,X1_M11
2022-10-25 07:00:00,,0820.6,5.00,0.00,22.9,21.4,00.0,31.7,24.8,08.8,0000.0,0002.66,0001.94,0001.71
2022-10-25 07:01:00,,0820.6,5.00,0.00,22.9,21.4,00.0,31.7,24.8,08.8,0000.0,0002.71,0001.93,0001.69
2022-10-25 07:02:00,,0820.6,5.00,0.00,22.9,21.5,00.0,31.7,24.8,08.8,0000.0,0002.72,0001.94,0001.68
2022-10-25 07:03:00,,0820.6,5.00,0.00,22.9,21.4,00.0,31.7,24.7,08.8,0000.0,0002.75,0001.94,0001.69
2022-10-25 07:04:00,,0820.6,5.00,0.00,22.9,21.4,00.0,31.7,24.7,08.9,0000.0,0002.80,0001.94,0001.69
2022-10-25 07:05:00,,0820.6,4.98,0.00,22.9,21.4,00.0,31.7,24.8,08.9,0000.0,0002.84,0001.96,0001.69
2022-10-25 07:06:00,,0820.7,5.00,0.00,22.9,21.4,00.0,31.7,24.8,08.9,0000.0,0002.85,0001.96,0001.69
2022-10-25 07:07:00,,0820.7,5.00,0.00,22.9,21.4,00.0,31.7,24.8,08.9,0000.0,0002.75,0001.92,0001.67
2022-10-25 07:08:00,,0820.7,5.00,0.00,22.9,21.5,00.0,31.7,24.8,09.0,0000.0,0002.59,0001.89,0001.66
2022-10-25 07:09:00,,0820.7,5.00,0.00,22.9,21.4,00.0,31.7,24.8,09.1,0000.0,0002.59,0001.88,0001.64
2022-10-25 07:10:00,,0820.7,5.00,0.00,22.9,21.4,00.0,31.7,24.8,09.1,0000.0,0003.03,0001.87,0001.64
2022-10-25 07:11:00,,0820.7,4.99,0.00,22.9,21.4,00.0,31.7,24.9,09.1,0000.0,0003.66,0001.84,0001.64
2022-10-25 07:12:00,,0820.6,5.01,0.00,22.9,21.5,00.0,31.8,24.8,09.1,0000.0,0003.53,0001.81,0001.64
2022-10-25 07:13:00,,0820.6,5.00,0.00,22.9,21.5,00.0,31.7,24.8,09.2,0000.0,0003.59,0001.84,0001.65
2022-10-25 07:14:00,,0820.6,5.00,0.00,22.9,21.4,00.0,31.7,24.8,09.3,0000.0,0003.57,0001.84,0001.67
2022-10-25 07:15:00,,0820.6,5.00,0.00,22.9,21.4,00.0,31.8,24.8,09.3,0000.0,0003.47,0001.82,0001.66
2022-10-25 07:16:00,,0820.5,5.00,0.00,22.9,21.4,00.0,31.8,24.9,09.3,0000.0,0003.58,0001.84,0001.67
2022-10-25 07:17:00,,0820.6,5.00,0.00,22.9,21.4,00.0,31.8,24.9,09.4,0000.0,0003.60,0001.86,0001.68
2022-10-25 07:18:00,,0820.6,5.00,0.00,22.9,21.4,00.0,31.7,24.9,09.4,0000.0,0003.63,0001.88,0001.70
2022-10-25 07:19:00,,0820.6,5.00,0.00,22.9,21.4,00.0,31.7,24.9,09.5,0000.0,0003.66,0001.89,0001.71
2022-10-25 07:20:00,,0820.6,5.00,0.00,22.9,21.4,00.0,31.7,24.8,09.5,0000.0,0003.60,0001.90,0001.72
2022-10-25 07:21:00,,0820.6,5.00,0.00,22.9,21.4,00.0,31.7,24.8,09.5,0000.0,0003.25,0001.89,0001.73
2022-10-25 07:22:00,,0820.6,5.00,0.00,22.9,21.4,00.0,31.7,24.9,09.5,0000.0,0002.41,0001.90,0001.73
2022-10-25 07:23:00,,0820.6,5.00,0.00,22.9,21.4,00.0,31.7,24.8,09.5,0000.0,0003.27,0001.93,0001.75
2022-10-25 07:24:00,,0820.6,5.00,0.00,22.9,21.3,00.0,31.7,24.8,09.6,0000.0,0004.95,0001.91,0001.74
2022-10-25 07:25:00,,0820.6,5.00,0.00,22.9,21.3,00.0,31.7,24.8,09.6,0000.0,0005.05,0001.96,0001.75
2022-10-25 07:26:00,,0820.6,5.00,0.00,22.9,21.4,00.0,31.7,24.8,09.6,0000.0,0005.08,0001.98,0001.76
2022-10-25 07:27:00,,0820.6,5.00,0.00,22.9,21.4,00.0,31.7,24.8,09.6,0000.0,0004.97,0001.96,0001.76
2022-10-25 07:28:00,,0820.6,5.00,0.00,22.9,21.3,00.0,31.7,24.8,09.6,0000.0,0005.25,0001.95,0001.76
2022-10-25 07:29:00,,0820.6,5.00,0.00,22.9,21.3,00.0,31.7,24.8,09.6,0000.0,0006.13,0001.95,0001.77
2022-10-25 07:30:00,,0820.6,4.98,0.00,22.9,21.3,00.0,31.7,24.8,09.6,0000.0,0006.20,0001.98,0001.78
2022-10-25 07:31:00,,0820.6,5.03,0.00,22.9,21.3,00.0,31.7,24.8,09.6,0000.0,0006.20,0001.99,0001.80
2022-10-25 07:32:00,,0820.6,4.98,0.00,22.9,21.3,00.0,31.7,24.7,09.7,0000.0,0006.32,0002.03,0001.81
2022-10-25 07:33:00,,0820.6,5.01,0.00,22.9,21.3,00.0,31.7,24.7,09.7,0000.0,0006.37,0002.06,0001.82
2022-10-25 07:34:00,,0820.7,5.01,0.00,22.9,21.4,00.0,31.7,24.8,09.7,0000.0,0006.74,0002.06,0001.81
2022-10-25 07:35:00,,0820.6,5.01,0.00,22.9,21.4,00.0,31.7,24.8,09.7,0000.0,0004.98,0002.08,0001.81
2022-10-25 07:36:00,,0820.6,5.00,0.00,22.9,21.4,00.0,31.7,24.8,09.8,0000.0,0004.71,0002.06,0001.81
2022-10-25 07:37:00,,0820.6,5.00,0.00,22.9,21.4,00.0,31.7,24.8,09.8,0000.0,0005.13,0002.03,0001.79
2022-10-25 07:38:00,,0820.6,5.00,0.00,22.9,21.4,00.0,31.7,24.8,09.8,0000.0,0005.62,0002.05,0001.78
2022-10-25 07:39:00,,0820.6,5.00,0.00,22.9,21.4,00.0,31.7,24.8,09.8,0000.0,0005.67,0002.06,0001.78
2022-10-25 07:40:00,,0820.6,4.98,0.00,22.9,21.4,00.0,31.7,24.8,09.8,0000.0,0005.38,0002.05,0001.78
2022-10-25 07:41:00,,0820.6,5.00,0.00,22.9,21.4,00.0,31.7,24.8,09.8,0000.0,0006.21,0002.03,0001.76
2022-10-25 07:42:00,,0820.6,5.00,0.00,22.9,21.4,00.0,31.7,24.8,09.8,0000.0,0007.20,0002.00,0001.74
2022-10-25 07:43:00,,0820.6,5.00,0.00,22.9,21.4,00.0,31.7,24.8,09.8,0000.0,0007.08,0001.95,0001.71
2022-10-25 07:44:00,,0820.6,5.00,0.00,22.9,21.4,00.0,31.7,24.8,09.8,0000.0,0007.29,0001.94,0001.70
2022-10-25 07:45:00,,0820.6,5.00,0.00,22.9,21.4,00.0,31.7,24.8,09.8,0000.0,0007.14,0001.92,0001.69
2022-10-25 07:46:00,,0820.6,5.00,0.00,22.9,21.4,00.0,31.7,24.8,09.8,0000.0,0007.09,0001.87,0001.68
2022-10-25 07:47:00,,0820.6,5.01,0.00,22.9,21.4,00.0,31.7,24.7,09.7,0000.0,0007.00,0001.83,0001.65
2022-10-25 07:48:00,,0820.6,5.01,0.00,22.9,21.3,00.0,31.7,24.7,09.7,0000.0,0006.49,0001.82,0001.65
2022-10-25 07:49:00,,0820.6,4.98,0.00,22.9,21.3,00.0,31.7,24.8,09.7,0000.0,0006.19,0001.80,0001.64
2022-10-25 07:50:00,,0820.7,5.01,0.00,22.9,21.3,00.0,31.7,24.8,09.7,0000.0,0005.82,0001.78,0001.64
2022-10-25 07:51:00,,0820.6,4.99,0.00,22.9,21.3,00.0,31.7,24.7,09.8,0000.0,0005.24,0001.77,0001.63
2022-10-25 07:52:00,,0820.6,5.03,0.00,22.9,21.3,00.0,31.7,24.7,09.8,0000.0,0004.46,0001.77,0001.63
2022-10-25 07:53:00,,0820.6,4.98,0.00,22.8,21.3,00.0,31.7,24.7,09.8,0000.0,0003.64,0001.79,0001.63
2022-10-25 07:54:00,,0820.6,5.02,0.00,22.8,21.3,00.0,31.7,24.8,09.8,0000.0,0004.06,0001.83,0001.64
2022-10-25 07:55:00,,0820.7,5.01,0.00,22.8,21.3,00.0,31.7,24.7,09.8,0000.0,0005.02,0001.80,0001.63
2022-10-25 07:56:00,,0820.6,4.98,0.00,22.8,21.3,00.0,31.7,24.7,09.8,0000.0,0004.26,0001.79,0001.62
2022-10-25 07:57:00,,0820.6,5.00,0.00,22.8,21.3,00.0,31.7,24.7,09.7,0000.0,0004.26,0001.81,0001.63
2022-10-25 07:58:00,,0820.7,5.02,0.00,22.8,21.3,00.0,31.7,24.8,09.8,0000.0,0004.29,0001.83,0001.64
2022-10-25 07:59:00,,0820.6,4.99,0.00,22.8,21.3,00.0,31.7,24.7,09.8,0000.0,0004.39,0001.87,0001.65
